RH
33 33 42 100 100 100 71 83 92 77 51 18 14 14 12 11 10 9 9 7 5 5 5 4 5 7 9 11 11 11 14 15 14 13 13 14 14 12 12 12 13 12 13 13 17
42 61 97 85 98 100 99 100 94 34 16 17 15 12 11 10 9 9 7 6 5 5 5 6 6 7 12 13 12 11 12 16 14 13 16 14 11 12 13 16 15 16 18 18 19
100 91 74 84 96 98 91 56 26 19 18 15 13 13 10 8 7 7 6 6 6 5 5 6 6 7 8 8 10 11 9 10 11 13 15 14 14 17 17 18 19 20 23 21 20
100 100 100 100 98 64 28 17 19 17 16 13 14 12 9 7 7 6 7 6 6 7 8 8 8 8 11 13 13 14 12 12 11 10 13 16 18 19 16 19 18 21 22 22 33
100 100 100 100 31 17 18 20 17 16 15 14 13 10 8 7 7 8 9 8 8 8 8 10 11 13 14 11 10 11 10 11 11 12 12 18 19 17 19 21 23 29 34 41 41
84 80 100 61 19 20 20 18 17 15 15 14 12 9 8 9 10 10 12 11 11 11 12 14 15 15 17 16 15 17 17 17 18 18 18 18 20 22 22 25 33 46 61 53 50
100 100 88 22 20 20 18 16 16 15 16 14 10 9 9 11 13 14 14 14 15 16 17 17 17 17 19 22 22 21 24 30 30 28 32 28 28 32 29 36 43 58 78 65 63
100 98 35 21 21 19 17 16 17 16 17 13 10 10 10 11 14 16 14 15 16 19 18 20 20 20 20 21 25 23 29 47 44 43 47 44 43 46 44 54 63 72 85 68 68
96 34 24 23 22 21 19 19 19 18 16 13 10 10 13 14 19 16 16 16 17 20 23 22 22 24 26 26 28 43 55 67 56 58 56 59 58 61 68 81 88 88 72 61 38
44 27 23 22 22 21 20 21 21 18 14 11 11 14 14 17 17 18 18 18 20 20 23 26 26 27 30 34 38 44 76 84 52 61 61 80 70 60 70 73 69 75 66 38 43
39 28 22 25 24 22 20 24 23 18 13 13 15 15 16 18 20 20 20 19 22 24 23 29 31 27 30 36 42 46 44 53 47 47 61 84 70 66 72 72 92 84 63 47 50
42 26 24 27 24 21 21 25 23 19 16 15 15 17 22 21 23 25 22 23 22 30 29 31 32 34 38 41 42 47 42 56 55 52 54 88 80 72 84 100 100 65 45 43 51
43 25 26 27 25 19 23 23 20 20 18 17 19 22 25 26 25 27 28 31 28 34 32 32 34 34 41 47 49 46 47 39 46 58 56 70 83 85 100 97 66 43 48 64 42
34 24 24 23 22 21 26 22 19 20 18 21 23 25 26 25 28 36 41 41 39 39 39 38 46 41 48 48 51 48 45 42 43 52 53 56 81 74 75 61 53 60 85 60 53
64 24 24 29 24 24 26 21 20 22 24 24 24 25 29 26 27 29 33 43 38 34 38 46 52 52 58 51 46 43 43 39 43 48 54 69 65 60 58 67 71 79 74 59 46
66 35 40 47 21 27 27 25 25 25 24 26 27 24 24 28 35 37 34 33 39 40 53 60 63 61 60 48 44 43 41 41 44 56 67 62 68 69 76 72 66 72 64 42 37
80 50 60 43 24 30 30 25 25 26 31 32 29 24 22 31 39 38 34 39 38 42 54 67 67 53 59 56 44 45 45 44 42 47 55 58 74 83 67 63 70 61 46 39 57
92 83 85 45 29 30 33 29 27 34 32 33 31 29 25 38 38 41 38 30 58 69 70 81 67 49 44 60 53 49 54 47 36 38 56 76 72 70 71 69 73 56 50 51 67
90 92 89 48 34 31 33 31 28 40 42 35 32 27 35 37 41 46 38 67 82 89 68 69 56 43 39 62 63 50 50 45 42 41 60 68 72 74 71 70 86 65 63 58 62
100 96 93 55 38 38 38 32 33 54 70 80 71 40 44 54 53 48 72 85 70 74 76 62 47 38 34 58 61 51 41 42 42 39 44 69 78 67 76 84 86 81 66 74 61
100 100 95 87 49 42 46 45 47 56 68 78 82 61 72 64 61 56 81 80 67 91 68 54 51 35 51 64 59 49 43 51 58 56 48 58 78 80 84 93 87 90 90 69 62
100 100 94 93 70 45 51 54 57 67 65 62 84 79 78 69 70 69 77 66 86 80 55 75 43 42 66 57 61 67 56 54 58 54 49 74 77 81 94 100 98 86 76 63 57
100 100 100 88 80 52 53 65 59 69 65 70 87 79 72 80 79 75 70 67 96 70 46 75 52 44 47 56 57 71 66 64 43 49 73 81 86 87 100 100 92 84 63 64 56
100 100 100 100 85 69 50 81 74 56 69 80 84 86 90 91 90 74 65 76 89 57 63 73 51 41 36 50 54 62 53 49 43 54 72 90 92 93 100 100 87 79 67 59 58
100 100 100 100 100 94 83 62 92 77 68 88 94 90 94 83 85 74 67 78 84 99 78 90 67 40 35 42 54 54 54 55 52 51 77 100 76 100 100 100 90 77 74 55 77
100 100 100 100 98 99 100 94 80 84 83 98 93 98 100 100 84 86 66 87 93 94 86 100 90 65 58 59 66 72 70 59 49 63 90 76 78 90 100 89 85 69 75 62 89
100 100 100 100 100 100 100 100 100 98 88 97 94 95 100 100 82 78 70 92 100 99 93 94 91 83 58 73 75 89 67 57 56 61 59 59 72 83 93 72 73 72 72 77 85
Wind_Speed
22 18 16 14 9 11 13 13 12 11 9 3 3 5 7 11 13 16 17 20 23 25 26 28 28 30 28 21 17 18 26 20 14 14 14 14 15 16 15 11 18 22 25 23 29
17 17 19 14 10 12 16 17 12 9 4 2 3 5 10 12 13 14 16 21 23 26 28 28 30 28 17 21 14 9 11 20 18 18 22 21 16 19 24 24 23 27 28 30 33
20 17 16 14 11 12 15 13 11 7 4 2 2 7 10 11 13 14 15 23 25 26 31 27 30 31 27 31 25 21 20 21 21 22 25 26 25 29 28 25 27 30 29 34 39
20 18 19 15 16 15 14 14 9 8 5 3 5 6 8 12 14 14 18 23 25 25 28 29 33 35 35 33 27 28 24 23 21 20 22 24 25 23 23 28 32 34 36 39 45
22 20 21 19 18 17 15 11 9 7 6 3 5 6 10 13 14 14 18 19 26 28 30 33 36 36 34 31 29 26 26 26 24 25 24 24 27 27 28 32 36 39 39 43 49
25 23 21 22 19 15 13 13 9 9 8 4 6 8 10 12 14 16 20 21 23 28 33 33 35 35 33 32 31 30 29 29 28 29 29 24 27 31 31 36 36 40 43 47 52
25 23 26 23 19 16 15 11 11 10 7 7 8 9 8 10 14 16 19 21 22 25 29 31 33 34 35 34 33 32 33 33 34 30 32 36 31 35 34 39 39 43 44 48 54
23 30 28 24 19 15 13 12 12 11 9 10 9 9 4 6 11 14 15 19 20 24 26 28 30 33 35 37 37 38 38 39 39 37 34 36 38 40 40 43 42 46 49 51 55
32 30 28 23 19 15 13 11 12 12 13 11 12 6 2 7 11 12 15 16 21 24 27 29 31 33 36 38 39 37 41 43 42 40 39 37 40 43 44 45 45 46 49 53 60
32 30 26 23 19 17 14 10 13 14 15 13 11 4 4 8 11 13 15 16 20 22 25 29 30 33 34 35 38 40 36 39 39 41 42 37 42 45 45 43 46 49 52 57 62
33 31 26 23 20 17 13 11 15 18 17 15 9 5 5 8 10 13 15 18 22 23 26 29 31 33 35 37 37 39 40 39 41 43 44 43 48 50 49 52 54 52 58 65 67
31 30 26 24 21 17 13 13 17 20 19 15 10 8 8 9 10 14 16 19 21 26 27 29 31 33 35 38 38 39 43 42 43 46 49 47 51 52 55 58 55 56 60 62 68
30 29 28 25 21 18 14 14 18 21 20 15 10 9 8 9 11 14 15 19 21 26 28 29 32 35 37 39 42 40 42 45 47 48 51 48 51 54 55 55 51 56 60 68 71
33 30 29 27 23 19 16 18 18 20 18 13 9 6 5 6 9 14 16 20 22 26 28 31 34 35 37 39 40 40 44 46 49 50 51 51 50 55 55 54 53 58 65 69 74
34 33 31 28 23 19 19 19 18 18 16 12 9 7 7 10 11 16 19 21 21 25 29 32 34 36 37 41 41 41 44 47 50 52 55 53 56 57 60 57 58 64 68 72 82
34 34 32 29 24 20 22 21 21 18 16 14 13 11 10 13 15 18 19 22 21 28 32 34 35 38 38 40 42 42 44 48 52 55 55 60 61 63 61 60 64 65 71 77 86
38 36 33 31 25 22 25 24 23 20 18 18 17 14 15 14 18 21 23 21 26 29 31 35 35 39 39 40 42 44 45 47 51 54 58 63 64 65 67 68 68 71 75 83 93
36 37 35 33 27 26 26 26 24 21 18 16 14 13 13 16 20 25 24 24 27 31 35 38 42 43 44 42 42 44 45 49 53 55 60 64 66 69 72 72 72 77 80 87 94
36 38 38 34 30 28 27 29 26 23 20 18 17 16 16 20 24 26 24 25 28 32 38 41 45 45 45 41 42 45 47 50 54 58 60 66 69 70 72 74 78 80 83 89 97
38 40 39 37 33 31 29 28 28 26 23 22 22 19 21 22 25 23 23 24 31 37 38 43 44 46 44 40 42 45 49 52 56 59 63 69 71 74 75 79 81 84 87 93 98
41 42 41 39 36 33 32 30 29 27 25 25 22 21 23 24 23 22 24 30 36 35 39 42 43 46 41 41 44 47 51 54 60 64 68 68 72 74 76 81 86 88 91 95 99
41 43 43 42 38 36 33 30 29 27 27 26 24 24 25 25 23 23 29 35 33 37 41 42 44 44 44 46 47 48 52 57 61 66 69 71 72 75 78 83 87 90 91 96 102
43 45 46 45 41 39 36 31 30 29 29 27 26 26 27 28 27 29 32 35 34 37 41 44 41 44 46 47 47 50 55 59 62 65 70 73 76 80 80 84 88 91 94 98 105
44 46 50 48 45 42 40 36 33 33 32 30 28 28 29 28 29 30 32 33 33 39 48 46 45 43 45 46 48 51 56 60 65 67 71 74 77 81 82 85 88 93 94 98 105
44 45 52 50 47 44 42 42 38 35 35 32 31 33 31 29 29 30 32 31 36 39 48 50 48 46 48 50 50 53 58 63 69 72 73 74 79 80 83 86 90 95 94 99 107
52 47 48 54 49 45 41 40 39 38 36 35 33 33 32 29 32 32 33 34 37 39 46 50 51 49 52 54 54 56 62 66 69 71 72 75 78 79 81 85 89 95 94 100 107
55 51 48 51 53 49 44 42 38 38 37 36 35 34 33 30 33 33 34 36 39 42 46 49 53 50 50 52 52 55 59 65 68 70 73 77 80 80 81 87 90 93 92 99 106
Wind_Direction
242 234 197 165 196 196 198 199 232 236 246 244 339 338 0 10 359 358 1 357 349 353 357 1 9 15 10 14 17 36 58 55 58 51 35 37 38 27 12 3 349 4 0 333 337
200 185 174 179 193 190 201 216 213 201 200 245 306 11 20 12 11 21 15 16 14 15 22 27 34 39 34 31 26 34 54 34 29 25 20 25 16 17 15 6 2 354 346 341 333
165 177 180 190 202 188 181 179 180 186 222 191 88 38 23 27 34 30 26 22 25 30 38 35 40 43 48 46 43 41 34 17 22 28 32 25 14 7 1 359 351 346 336 335 334
184 216 213 217 182 170 175 172 172 193 186 161 87 44 42 56 44 44 40 32 34 37 34 35 37 36 33 31 28 29 30 25 27 19 25 17 10 358 359 355 348 343 338 338 336
197 196 207 204 177 166 163 171 172 159 174 141 98 75 76 63 51 38 28 21 25 26 28 29 30 29 30 27 26 25 23 23 16 10 15 9 357 354 349 346 342 339 337 337 335
190 192 203 184 168 162 165 169 172 172 172 160 122 98 90 62 46 33 25 20 18 21 25 24 26 26 25 23 21 19 14 8 10 4 357 357 349 347 337 335 336 337 337 332 333
192 215 185 176 164 164 167 165 173 175 176 181 136 119 96 58 33 23 23 23 20 18 17 19 18 17 17 17 17 18 17 10 5 359 349 347 345 340 332 331 331 335 334 331 334
218 181 179 175 172 181 181 190 176 180 181 182 148 133 86 37 14 14 17 16 22 23 18 16 14 13 12 11 10 9 12 8 0 359 352 340 336 339 333 330 328 327 330 332 335
181 179 180 183 185 190 190 186 183 185 186 182 161 154 16 4 7 8 6 11 15 17 12 10 10 8 5 4 5 5 2 360 358 355 351 342 338 337 336 331 328 330 333 334 338
180 181 185 191 195 196 202 204 189 191 189 172 177 187 332 354 7 9 8 9 11 10 7 5 5 4 1 358 360 2 1 351 351 351 352 342 337 337 340 337 336 334 336 340 339
183 183 190 197 190 199 212 209 192 195 192 184 201 254 315 345 352 359 5 8 7 3 360 359 359 358 357 354 354 355 357 353 350 351 349 344 339 341 337 334 336 338 338 337 335
186 188 194 199 200 211 218 214 198 201 202 212 231 268 304 326 336 342 350 354 354 357 358 355 354 352 351 351 351 351 356 353 348 349 351 345 340 339 339 336 339 337 334 331 333
190 194 199 205 209 213 216 209 198 205 204 212 234 268 294 312 327 341 349 350 349 350 350 352 349 348 349 348 350 350 353 353 353 350 351 346 341 341 339 335 334 333 333 335 334
195 199 204 208 209 211 215 206 207 207 205 219 240 277 311 308 328 343 340 342 344 345 346 347 345 344 345 344 347 347 349 350 354 352 351 348 344 341 337 335 334 332 331 331 332
203 199 204 207 208 214 213 207 202 200 209 222 247 262 272 299 316 327 330 336 336 343 343 344 341 340 341 341 345 346 347 350 352 350 349 348 346 344 340 337 333 330 330 330 334
206 203 205 208 208 215 210 208 204 212 220 234 249 249 274 297 313 319 322 332 334 340 342 342 341 341 340 341 343 343 344 347 350 351 348 346 345 345 341 338 333 334 332 338 339
211 206 207 209 205 211 214 214 217 225 234 244 247 258 270 293 313 315 319 323 336 336 340 340 345 345 340 339 338 340 342 346 349 349 347 346 345 342 341 341 339 336 340 342 344
215 210 209 210 208 214 219 219 224 230 238 241 246 263 270 290 303 312 317 330 336 337 337 335 339 338 341 336 335 337 339 341 341 345 348 346 346 343 344 343 342 341 342 342 346
216 212 211 210 211 219 218 221 229 233 240 247 254 269 278 289 303 308 315 329 334 333 330 329 333 335 337 335 333 336 340 340 341 343 346 344 346 345 343 344 345 341 341 342 347
221 214 214 214 215 220 216 220 225 231 244 252 260 269 278 291 299 305 320 326 328 330 328 330 333 335 334 333 334 338 340 339 340 340 342 343 344 345 345 346 345 342 342 345 349
228 220 215 213 219 222 221 224 227 234 244 254 258 267 281 288 295 307 315 318 324 326 327 332 335 336 334 333 336 339 341 340 339 339 341 342 343 345 344 345 343 342 343 346 346
228 220 217 217 219 223 223 227 232 238 245 253 259 264 278 284 291 308 314 322 326 324 329 332 340 341 337 337 340 338 338 339 340 338 340 342 344 345 345 345 342 342 343 346 348
225 226 221 219 221 223 226 229 234 239 248 254 253 264 276 281 286 303 316 324 321 326 331 338 341 341 341 341 340 338 339 339 340 341 341 343 345 346 345 344 342 342 345 350 351
226 227 222 221 223 225 231 235 237 242 249 254 255 264 276 280 291 304 319 323 322 326 333 336 339 339 339 342 339 339 340 341 341 343 342 344 345 346 345 345 343 343 347 351 352
224 227 225 227 227 229 233 239 243 244 249 253 258 268 276 283 290 304 319 322 322 326 332 333 338 339 339 340 341 340 341 342 341 341 343 345 344 346 345 345 344 345 349 350 351
222 227 230 232 230 232 235 241 244 247 251 255 260 267 273 276 286 304 316 321 323 325 332 331 336 341 340 342 343 341 342 341 340 343 342 342 344 345 345 343 344 345 349 350 351
224 227 232 234 233 235 238 242 246 250 253 255 261 263 268 276 287 301 315 320 322 326 330 330 332 335 340 341 340 339 338 340 340 340 341 343 342 344 344 343 345 348 349 352 351